[Date Prev][Date Next][Thread Prev][Thread Next] - [Date Index][Thread Index][Author Index]

2 Line ISS Keps 4-21



ISS
1 25544U 98067A   06110.82692130  .00010675  00000-0  72634-4 0  7734
2 25544 051.6391 122.7364 0009163 131.5764 221.5250 15.75518847424118
----
Via the sarex mailing list at AMSAT.ORG courtesy of AMSAT-NA.
To unsubscribe, send "unsubscribe sarex" to Majordomo@amsat.org



AMSAT Top AMSAT Home